Dirección General De Aeronáutica Civil

Dirección Meteorológica de Chile - Servicios Climáticos

Informe General de Control de Calidad de la Estación

Listado de niveles de control de calidad para algunos parámetros
Estación Diego Ramírez (560002)
Fecha de Revisión de los datos :

Elementos

Registros Niveles de Control Total
Nivel 0 Nivel 1 Nivel 2 Nivel 3 Errores Porcentaje
01 Temperatura del Aire Seco 6.413 2 0.03 % 0 . 0 . 0 . 2 0.03 %
02 Temperatura de Rocío 6.414 0 . 0 . 0 . 0 . 0 0.00 %
03 Humedad Relativa del Aire 6.408 0 . 0 . 0 . 0 . 0 0.00 %
04 Temperatura Máxima PM 808 1 0.12 % 0 . 62 7.67 % 0 . 63 7.80 %
05 Temperatura Mínima AM 798 0 . 0 . 36 4.51 % 0 . 36 4.51 %
06 Viento a 10 m. de Altura 6.414 14 0.22 % 0 . 0 . 0 . 14 0.22 %
07 Agua Caida, Acumulada 6 Horas 3.212 0 . 122 3.80 % 0 . 0 . 122 3.80 %
08 Presión Atm. a Nivel de Estación (QFE) 6.398 0 . 4 0.06 % 0 . 0 . 4 0.06 %
09 Presión Atm. a Nivel Medio del Mar (QFF) 6.398 0 . 0 . 0 . 0 . 0 0.00 %
10 Tiempo Pasado Sinóptico 6.413 0 . 0 . 0 . 0 . 0 0.00 %
11 Tiempo Presente Sinóptico 6.414 0 . 16 0.25 % 0 . 0 . 16 0.25 %

Totales

56.090 . 0.0303 % . 0.2532 % . 0.1747 % . 0.0000 % 257 0.4582 %

Detalle de Errores Recientes

Fecha del Dato Descripción Información Error Fecha Ingreso
2024-01-06 00:00:00 Temperatura 7.4 del 05-01-2024 21:00, Mayor que la Máxima 7.1 06-01-2024 00:00 7.4 -- 7.1 2024-01-06 00:36:00
2024-01-18 00:00:00 Temperatura 8.8 del 17-01-2024 18:00, Mayor que la Máxima 7.8 18-01-2024 00:00 8.8 -- 7.8 2024-01-18 00:08:00
Total de Errores Recientes 2

Detalle de Errores Encontrados

Nivel Fecha del Dato Descripción Información Error Fecha Ingreso
0 2022-07-16 18:00:00 Ts (Temperatura Del Aire) debe ser numérico, entre -50.0 y 50.0 55.8 2022-07-16 18:44:00
0 2022-08-11 15:00:00 Ts (Temperatura Del Aire) debe ser numérico, entre -50.0 y 50.0 85.3 2022-08-11 16:12:00
0 2022-05-19 00:00:00 TX (Temperatura Máxima PM) debe ser numérico, entre -50 y 50 90.0 2022-05-19 01:50:00
0 2023-09-29 09:00:00 ff (Intensidad del Viento) debe ser numerico, entre 0 y 70 kt. 71 2023-09-29 09:06:00
0 2023-09-29 12:00:00 ff (Intensidad del Viento) debe ser numerico, entre 0 y 70 kt. 74 2023-09-29 13:04:00
0 2023-10-04 09:00:00 ff (Intensidad del Viento) debe ser numerico, entre 0 y 70 kt. 75 2023-10-04 09:20:00
0 2023-10-04 12:00:00 ff (Intensidad del Viento) debe ser numerico, entre 0 y 70 kt. 77 2023-10-04 12:08:00
0 2023-10-04 15:00:00 ff (Intensidad del Viento) debe ser numerico, entre 0 y 70 kt. 72 2023-10-04 15:25:00
0 2023-10-05 09:00:00 ff (Intensidad del Viento) debe ser numerico, entre 0 y 70 kt. 75 2023-10-05 10:08:00
0 2023-10-06 21:00:00 ff (Intensidad del Viento) debe ser numerico, entre 0 y 70 kt. 78 2023-10-06 21:24:00
0 2023-10-07 00:00:00 ff (Intensidad del Viento) debe ser numerico, entre 0 y 70 kt. 84 2023-10-07 00:56:00
0 2023-10-14 12:00:00 ff (Intensidad del Viento) debe ser numerico, entre 0 y 70 kt. 75 2023-10-14 12:35:00
0 2023-10-14 18:00:00 ff (Intensidad del Viento) debe ser numerico, entre 0 y 70 kt. 73 2023-10-14 20:49:00
0 2023-10-28 06:00:00 ff (Intensidad del Viento) debe ser numerico, entre 0 y 70 kt. 80 2023-10-28 10:26:00
0 2023-10-28 09:00:00 ff (Intensidad del Viento) debe ser numerico, entre 0 y 70 kt. 85 2023-10-28 09:55:00
0 2023-11-02 00:00:00 ff (Intensidad del Viento) debe ser numerico, entre 0 y 70 kt. 75 2023-11-02 00:00:00
0 2023-11-02 09:00:00 ff (Intensidad del Viento) debe ser numerico, entre 0 y 70 kt. 75 2023-11-02 10:24:00
Errores del Nivel 17
Nivel Fecha del Dato Descripción Información Error Fecha Ingreso
1 2021-10-18 12:00:00 rrr = s/p y WW = 1 w1=8 w2=2 0.0 2021-10-18 11:56:00
1 2021-10-18 18:00:00 rrr = 0.7 y WW = 2 w1=2 w2=2 0.7 2021-10-18 20:18:00
1 2021-10-19 06:00:00 rrr = 0.2 y WW = 2 w1=2 w2=2 0.2 2021-10-19 10:55:00
1 2021-11-21 12:00:00 rrr = s/p y WW = 2 w1=5 w2=2 0.0 2021-11-21 13:24:00
1 2021-11-22 06:00:00 rrr = s/p y WW = 71 w1=2 w2=2 0.0 2021-11-22 10:36:00
1 2021-11-23 00:00:00 rrr = s/p y WW = 1 w1=7 w2=2 0.0 2021-11-23 00:52:00
1 2021-11-25 12:00:00 rrr = 0.4 y WW = 2 w1=2 w2=2 0.4 2021-11-25 12:13:00
1 2021-12-04 00:00:00 rrr = 2.0 y WW = 2 w1=2 w2=2 2.0 2021-12-04 00:41:00
1 2021-12-13 12:00:00 rrr = 0.6 y WW = 2 w1=2 w2=2 0.6 2021-12-13 12:39:00
1 2021-12-21 06:00:00 rrr = s/p y WW = 2 w1=5 w2=2 0.0 2021-12-21 11:00:00
1 2021-12-24 18:00:00 rrr = s/p y WW = 2 w1=5 w2=2 0.0 2021-12-25 11:33:00
1 2022-01-02 00:00:00 rrr = s/p y WW = 2 w1=6 w2=2 0.0 2022-01-02 03:20:00
1 2022-01-02 00:00:00 rrr = s/p y WW = 2 w1=6 w2=2 0.0 2022-01-02 03:20:00
1 2022-01-06 00:00:00 rrr = 0.6 y WW = 2 w1=2 w2=2 0.6 2022-01-06 01:54:00
1 2022-01-09 00:00:00 rrr = 1.5 y WW = 1 w1=0 w2=0 1.5 2022-01-09 00:12:00
1 2022-01-10 00:00:00 rrr = 0.4 y WW = 2 w1=2 w2=2 0.4 2022-01-10 03:16:00
1 2022-01-27 18:00:00 rrr = s/p y WW = 2 w1=5 w2=2 0.0 2022-01-27 18:16:00
1 2022-02-24 12:00:00 rrr = s/p y WW = 51 w1=2 w2=2 0.0 2022-02-24 19:23:00
1 2022-03-13 00:00:00 rrr = s/p y WW = 50 w1=5 w2=5 0.0 2022-03-13 01:28:00
1 2022-03-18 00:00:00 rrr = s/p y WW = 71 w1=2 w2=2 0.0 2022-03-18 01:24:00
1 2022-03-26 18:00:00 rrr = s/p y WW = 61 w1=8 w2=5 0.0 2022-03-26 22:36:00
1 2022-03-27 00:00:00 rrr = s/p y WW = 61 w1=6 w2=6 0.0 2022-03-27 05:28:00
1 2022-03-30 00:00:00 rrr = s/p y WW = 2 w1=8 w2=2 0.0 2022-03-30 05:28:00
1 2022-04-01 18:00:00 rrr = s/p y WW = 21 w1=5 w2=5 0.0 2022-04-01 21:54:00
1 2022-04-02 06:00:00 rrr = s/p y WW = 61 w1=2 w2=2 0.0 2022-04-02 11:11:00
1 2022-04-05 00:00:00 rrr = s/p y WW = 26 w1=8 w2=8 0.0 2022-04-05 05:39:00
1 2022-04-05 12:00:00 rrr = 0.7 y WW = 2 w1=2 w2=2 0.7 2022-04-05 13:38:00
1 2022-04-06 18:00:00 rrr = 0.2 y WW = 2 w1=2 w2=2 0.2 2022-04-07 01:50:00
1 2022-04-10 18:00:00 rrr = s/p y WW = 25 w1=5 w2=5 0.0 2022-04-10 23:36:00
1 2022-04-11 00:00:00 rrr = s/p y WW = 80 w1=8 w2=8 0.0 2022-04-11 01:12:00
1 2022-04-14 12:00:00 rrr = 0.5 y WW = 2 w1=2 w2=2 0.5 2022-04-14 13:02:00
1 2022-04-15 18:00:00 rrr = s/p y WW = 50 w1=5 w2=5 0.0 2022-04-16 03:58:00
1 2022-04-16 00:00:00 rrr = s/p y WW = 50 w1=5 w2=5 0.0 2022-04-16 04:03:00
1 2022-04-16 12:00:00 rrr = 0.1 y WW = 2 w1=2 w2=2 0.1 2022-04-16 12:42:00
1 2022-04-26 06:00:00 rrr = 0.1 y WW = 2 w1=2 w2=2 0.1 2022-04-26 10:43:00
1 2022-05-06 12:00:00 rrr = 0.5 y WW = 2 w1=2 w2=2 0.5 2022-05-06 12:33:00
1 2022-05-10 12:00:00 rrr = 0.2 y WW = 2 w1=2 w2=2 0.2 2022-05-10 14:14:00
1 2022-05-21 06:00:00 rrr = s/p y WW = 50 w1=5 w2=2 0.0 2022-05-21 10:22:00
1 2022-05-25 00:00:00 rrr = s/p y WW = 51 w1=5 w2=5 0.0 2022-05-25 01:36:00
1 2022-05-29 12:00:00 rrr = 0.2 y WW = 2 w1=2 w2=2 0.2 2022-05-29 12:15:00
1 2022-06-01 06:00:00 rrr = s/p y WW = 2 w1=5 w2=2 0.0 2022-06-01 11:01:00
1 2022-06-02 00:00:00 rrr = s/p y WW = 50 w1=5 w2=5 0.0 2022-06-02 03:57:00
1 2022-06-02 12:00:00 rrr = s/p y WW = 2 w1=5 w2=5 0.0 2022-06-02 12:26:00
1 2022-06-05 18:00:00 rrr = 0.5 y WW = 2 w1=2 w2=2 0.5 2022-06-05 19:18:00
1 2022-06-29 06:00:00 rrr = s/p y WW = 56 w1=5 w2=5 0.0 2022-06-29 09:25:00
1 2022-07-27 18:00:00 rrr = s/p y WW = 63 w1=5 w2=5 0.0 2022-07-27 19:06:00
1 2022-07-29 18:00:00 rrr = s/p y WW = 2 w1=6 w2=6 0.0 2022-07-29 19:36:00
1 2022-08-10 18:00:00 rrr = s/p y WW = 10 w1=5 w2=2 0.0 2022-08-10 18:24:00
1 2022-08-21 06:00:00 rrr = 0.1 y WW = 2 w1=2 w2=2 0.1 2022-08-21 11:24:00
1 2022-08-23 18:00:00 rrr = s/p y WW = 2 w1=6 w2=6 0.0 2022-08-23 19:35:00
1 2022-08-26 18:00:00 rrr = 0.8 y WW = 2 w1=2 w2=2 0.8 2022-08-26 19:27:00
1 2022-09-01 00:00:00 rrr = 3.0 y WW = 1 w1=2 w2=0 3.0 2022-09-01 01:26:00
1 2022-09-07 00:00:00 rrr = 3.0 y WW = 2 w1=2 w2=2 3.0 2022-09-07 01:50:00
1 2022-09-08 12:00:00 rrr = 1.2 y WW = 10 w1=2 w2=2 1.2 2022-09-08 12:47:00
1 2022-09-12 00:00:00 rrr = s/p y WW = 2 w1=6 w2=2 0.0 2022-09-12 00:37:00
1 2022-09-17 12:00:00 rrr = 0.1 y WW = 2 w1=2 w2=2 0.1 2022-09-17 13:20:00
1 2022-10-01 18:00:00 rrr = 0.4 y WW = 11 w1=2 w2=2 0.4 2022-10-01 18:15:00
1 2022-10-02 06:00:00 rrr = 0.1 y WW = 1 w1=2 w2=2 0.1 2022-10-02 11:41:00
1 2022-10-07 12:00:00 rrr = 2.5 y WW = 2 w1=2 w2=2 2.5 2022-10-07 12:12:00
1 2022-10-11 18:00:00 rrr = 0.3 y WW = 2 w1=2 w2=2 0.3 2022-10-12 02:09:00
1 2022-10-12 00:00:00 rrr = 0.7 y WW = 2 w1=2 w2=2 0.7 2022-10-12 03:03:00
1 2022-10-12 06:00:00 rrr = 0.4 y WW = 2 w1=2 w2=2 0.4 2022-10-12 09:42:00
1 2022-10-15 12:00:00 rrr = 0.2 y WW = 1 w1=2 w2=2 0.2 2022-10-15 12:31:00
1 2022-10-25 00:00:00 rrr = s/p y WW = 26 w1=2 w2=2 0.0 2022-10-25 00:08:00
1 2022-10-29 12:00:00 rrr = 0.7 y WW = 2 w1=2 w2=2 0.7 2022-10-29 12:34:00
1 2022-10-31 06:00:00 rrr = s/p y WW = 2 w1=5 w2=2 0.0 2022-10-31 10:52:00
1 2022-11-03 12:00:00 rrr = s/p y WW = 2 w1=5 w2=5 0.0 2022-11-03 13:18:00
1 2022-11-26 12:00:00 rrr = s/p y WW = 25 w1=6 w2=2 0.0 2022-11-26 12:07:00
1 2022-12-12 12:00:00 rrr = s/p y WW = 2 w1=6 w2=2 0.0 2022-12-12 14:08:00
1 2022-12-17 12:00:00 rrr = s/p y WW = 3 w1=5 w2=2 0.0 2022-12-17 12:37:00
1 2022-12-17 18:00:00 rrr = s/p y WW = 1 w1=5 w2=5 0.0 2022-12-17 19:21:00
1 2022-12-19 06:00:00 rrr = 0.6 y WW = 11 w1=4 w2=4 0.6 2022-12-19 09:49:00
1 2022-12-27 00:00:00 rrr = 0.7 y WW = 40 w1=4 w2=4 0.7 2022-12-27 03:52:00
1 2023-01-07 12:00:00 rrr = s/p y WW = 40 w1=8 w2=2 0.0 2023-01-07 13:00:00
1 2023-01-28 00:00:00 rrr = 0.3 y WW = 40 w1=4 w2=4 0.3 2023-01-28 00:46:00
1 2023-01-30 12:00:00 rrr = 0.3 y WW = 1 w1=2 w2=2 0.3 2023-01-30 12:01:00
1 2023-02-01 06:00:00 rrr = 0.1 y WW = 40 w1=4 w2=4 0.1 2023-02-01 10:16:00
1 2023-02-01 12:00:00 rrr = 0.3 y WW = 40 w1=4 w2=4 0.3 2023-02-01 13:17:00
1 2023-02-01 18:00:00 rrr = s/p y WW = 2 w1=5 w2=2 0.0 2023-02-01 18:33:00
1 2023-02-05 12:00:00 rrr = s/p y WW = 50 w1=5 w2=4 0.0 2023-02-05 14:37:00
1 2023-02-09 12:00:00 rrr = 1.1 y WW = 40 w1=4 w2=4 1.1 2023-02-09 12:45:00
1 2023-02-10 12:00:00 rrr = 0.2 y WW = 2 w1=2 w2=2 0.2 2023-02-10 12:35:00
1 2023-02-11 18:00:00 rrr = 0.9 y WW = 3 w1=1 w2=0 0.9 2023-02-11 18:09:00
1 2023-02-12 06:00:00 rrr = 2.5 y WW = 1 w1=0 w2=0 2.5 2023-02-12 10:50:00
1 2023-02-13 06:00:00 rrr = 0.3 y WW = 40 w1=4 w2=4 0.3 2023-02-13 09:57:00
1 2023-02-14 12:00:00 rrr = 1.8 y WW = 2 w1=2 w2=2 1.8 2023-02-14 12:33:00
1 2023-02-23 06:00:00 rrr = 0.2 y WW = 11 w1=2 w2=2 0.2 2023-02-23 07:02:00
1 2023-02-25 06:00:00 rrr = 2.4 y WW = 1 w1=1 w2=0 2.4 2023-02-25 12:10:00
1 2023-02-26 06:00:00 rrr = s/p y WW = 3 w1=6 w2=1 0.0 2023-02-26 06:14:00
1 2023-03-03 12:00:00 rrr = s/p y WW = 1 w1=5 w2=1 0.0 2023-03-03 12:00:00
1 2023-03-06 06:00:00 rrr = s/p y WW = 3 w1=8 w2=2 0.0 2023-03-06 06:04:00
1 2023-03-12 06:00:00 rrr = s/p y WW = 2 w1=6 w2=2 0.0 2023-03-12 06:21:00
1 2023-03-13 06:00:00 rrr = s/p y WW = 1 w1=6 w2=0 0.0 2023-03-13 06:05:00
1 2023-03-24 06:00:00 rrr = s/p y WW = 60 w1=5 w2=2 0.0 2023-03-24 08:57:00
1 2023-04-06 00:00:00 rrr = s/p y WW = 2 w1=8 w2=1 0.0 2023-04-06 00:28:00
1 2023-05-05 00:00:00 rrr = s/p y WW = 2 w1=8 w2=2 0.0 2023-05-04 23:57:00
1 2023-05-07 18:00:00 rrr = 0.3 y WW = 10 w1=4 w2=2 0.3 2023-05-07 18:10:00
1 2023-05-11 00:00:00 rrr = s/p y WW = 60 w1=6 w2=2 0.0 2023-05-11 02:24:00
1 2023-05-12 18:00:00 rrr = 0.8 y WW = 1 w1=2 w2=1 0.8 2023-05-12 18:15:00
1 2023-05-16 00:00:00 rrr = s/p y WW = 1 w1=8 w2=1 0.0 2023-05-16 01:03:00
1 2023-05-24 18:00:00 rrr = 1.0 y WW = 2 w1=2 w2=2 1.0 2023-05-24 18:05:00
1 2023-06-19 00:00:00 rrr = 0.3 y WW = 3 w1=2 w2=2 0.3 2023-06-19 00:37:00
1 2023-06-23 12:00:00 rrr = s/p y WW = 1 w1=7 w2=2 0.0 2023-06-23 12:30:00
1 2023-07-04 12:00:00 rrr = s/p y WW = 2 w1=8 w2=2 0.0 2023-07-04 12:07:00
1 2023-07-11 00:00:00 rrr = s/p y WW = 60 w1=6 w2=2 0.0 2023-07-11 00:45:00
1 2023-07-11 06:00:00 rrr = s/p y WW = 1 w1=6 w2=2 0.0 2023-07-11 06:04:00
1 2023-07-22 18:00:00 rrr = s/p y WW = 2 w1=7 w2=2 0.0 2023-07-22 18:19:00
1 2023-07-28 12:00:00 rrr = 0.1 y WW = 2 w1=2 w2=2 0.1 2023-07-28 12:01:00
1 2023-08-06 12:00:00 rrr = s/p y WW = 70 w1=7 w2=2 0.0 2023-08-06 12:23:00
1 2023-08-12 12:00:00 rrr = 3.4 y WW = 3 w1=0 w2=0 3.4 2023-08-12 12:14:00
1 2023-08-26 06:00:00 rrr = s/p y WW = 60 w1=6 w2=2 0.0 2023-08-26 12:28:00
1 2023-08-28 00:00:00 rrr = s/p y WW = 1 w1=6 w2=1 0.0 2023-08-28 00:20:00
1 2023-09-01 00:00:00 rrr = 1.0 y WW = 1 w1=2 w2=1 1.0 2023-09-01 03:02:00
1 2023-09-16 06:00:00 rrr = s/p y WW = 70 w1=7 w2=2 0.0 2023-09-16 06:21:00
1 2023-09-28 18:00:00 rrr = 0.1 y WW = 3 w1=2 w2=2 0.1 2023-09-28 18:10:00
1 2023-10-10 12:00:00 rrr = s/p y WW = 2 w1=7 w2=2 0.0 2023-10-10 12:11:00
1 2023-11-10 12:00:00 rrr = 0.5 y WW = 2 w1=2 w2=2 0.5 2023-11-10 12:26:00
1 2023-11-14 06:00:00 rrr = s/p y WW = 2 w1=7 w2=2 0.0 2023-11-14 06:13:00
1 2023-11-19 06:00:00 rrr = s/p y WW = 70 w1=7 w2=2 0.0 2023-11-19 06:45:00
1 2023-11-19 12:00:00 rrr = s/p y WW = 2 w1=7 w2=7 0.0 2023-11-19 14:22:00
1 2023-12-18 00:00:00 rrr = 0.5 y WW = 3 w1=4 w2=4 0.5 2023-12-18 00:14:00
1 2023-12-18 06:00:00 rrr = 0.5 y WW = 12 w1=4 w2=4 0.5 2023-12-18 06:12:00
1 2022-09-07 12:00:00 qfe debe ser menor o igual a qff 996.0 - 974.0 2022-09-07 12:16:00
1 2022-09-19 12:00:00 qfe debe ser menor o igual a qff 1018.0 - 1006.4 2022-09-19 12:12:00
1 2023-02-27 15:00:00 qfe debe ser menor o igual a qff 987.0 - 983.6 2023-02-27 15:05:00
1 2023-02-27 18:00:00 qfe debe ser menor o igual a qff 986.0 - 916.0 2023-02-27 18:29:00
1 2022-04-10 21:00:00 ts > 5.0 y ((ww >= 70 y ww <= 79) || (ww >= 85 y ww <= 88))) 88 2022-04-10 23:46:00
1 2022-04-27 21:00:00 ts > 5.0 y ((ww >= 70 y ww <= 79) || (ww >= 85 y ww <= 88))) 87 2022-04-27 23:39:00
1 2022-05-23 09:00:00 ts > 3.0 y ( (ww >= 48 y ww <= 49) o (ww >= 56 y ww <= 57) o (ww >=66 y ww <= 67)) 66 2022-05-23 11:01:00
1 2022-06-22 00:00:00 ts > 3.0 y ( (ww >= 48 y ww <= 49) o (ww >= 56 y ww <= 57) o (ww >=66 y ww <= 67)) 56 2022-06-21 23:45:00
1 2022-07-26 03:00:00 ts > 3.0 y ( (ww >= 48 y ww <= 49) o (ww >= 56 y ww <= 57) o (ww >=66 y ww <= 67)) 56 2022-07-26 03:39:00
1 2022-07-26 06:00:00 ts > 3.0 y ( (ww >= 48 y ww <= 49) o (ww >= 56 y ww <= 57) o (ww >=66 y ww <= 67)) 56 2022-07-26 10:27:00
1 2022-07-26 09:00:00 ts > 3.0 y ( (ww >= 48 y ww <= 49) o (ww >= 56 y ww <= 57) o (ww >=66 y ww <= 67)) 56 2022-07-26 10:29:00
1 2022-08-28 03:00:00 ts > 3.0 y ( (ww >= 48 y ww <= 49) o (ww >= 56 y ww <= 57) o (ww >=66 y ww <= 67)) 66 2022-08-28 05:19:00
1 2022-08-28 15:00:00 ts > 3.0 y ( (ww >= 48 y ww <= 49) o (ww >= 56 y ww <= 57) o (ww >=66 y ww <= 67)) 66 2022-08-28 17:03:00
1 2022-09-22 21:00:00 ts > 5.0 y ((ww >= 70 y ww <= 79) || (ww >= 85 y ww <= 88))) 87 2022-09-22 21:29:00
1 2022-12-08 12:00:00 ts > 3.0 y ( (ww >= 48 y ww <= 49) o (ww >= 56 y ww <= 57) o (ww >=66 y ww <= 67)) 67 2022-12-08 12:31:00
1 2022-12-08 18:00:00 ts > 3.0 y ( (ww >= 48 y ww <= 49) o (ww >= 56 y ww <= 57) o (ww >=66 y ww <= 67)) 67 2022-12-08 20:33:00
1 2023-04-27 18:00:00 ts > 3.0 y ( (ww >= 48 y ww <= 49) o (ww >= 56 y ww <= 57) o (ww >=66 y ww <= 67)) 67 2023-04-27 18:02:00
1 2023-06-11 06:00:00 ts > 5.0 y ((ww >= 70 y ww <= 79) || (ww >= 85 y ww <= 88))) 87 2023-06-11 06:25:00
1 2023-08-05 18:00:00 ts > 3.0 y ( (ww >= 48 y ww <= 49) o (ww >= 56 y ww <= 57) o (ww >=66 y ww <= 67)) 67 2023-08-05 18:16:00
1 2023-11-23 18:00:00 ts > 3.0 y ( (ww >= 48 y ww <= 49) o (ww >= 56 y ww <= 57) o (ww >=66 y ww <= 67)) 66 2023-11-23 18:51:00
Errores del Nivel 142
Nivel Fecha del Dato Descripción Información Error Fecha Ingreso
2 2021-12-10 00:00:00 Temperatura 8.4 del 09-12-2021 18:00, Mayor que la Máxima 8.0 10-12-2021 00:00 8.4 -- 8.0 2021-12-10 03:22:00
2 2022-01-16 00:00:00 Temperatura 5.6 del 15-01-2022 15:00, Mayor que la Máxima 4.4 16-01-2022 00:00 5.6 -- 4.4 2022-01-16 00:12:00
2 2022-03-13 00:00:00 Temperatura 8.6 del 12-03-2022 15:00, Mayor que la Máxima 8.0 13-03-2022 00:00 8.6 -- 8.0 2022-03-13 01:28:00
2 2022-04-10 00:00:00 Temperatura 8.0 del 09-04-2022 15:00, Mayor que la Máxima 7.8 10-04-2022 00:00 8.0 -- 7.8 2022-04-10 01:24:00
2 2022-04-21 00:00:00 Temperatura 7.2 del 20-04-2022 18:00, Mayor que la Máxima 7.0 21-04-2022 00:00 7.2 -- 7.0 2022-04-21 00:44:00
2 2022-04-28 00:00:00 Temperatura 10.0 del 27-04-2022 21:00, Mayor que la Máxima 4.1 28-04-2022 00:00 10.0 -- 4.1 2022-04-28 02:08:00
2 2022-06-19 00:00:00 Temperatura 0.2 del 18-06-2022 18:00, Mayor que la Máxima 0.0 19-06-2022 00:00 0.2 -- 0.0 2022-06-19 01:22:00
2 2022-06-25 00:00:00 Temperatura 5.6 del 24-06-2022 15:00, Mayor que la Máxima 5.5 25-06-2022 00:00 5.6 -- 5.5 2022-06-25 03:39:00
2 2022-07-02 00:00:00 Temperatura 5.0 del 01-07-2022 21:00, Mayor que la Máxima 4.0 02-07-2022 00:00 5.0 -- 4.0 2022-07-02 01:46:00
2 2022-07-04 00:00:00 Temperatura 4.6 del 03-07-2022 15:00, Mayor que la Máxima 4.0 04-07-2022 00:00 4.6 -- 4.0 2022-07-04 00:51:00
2 2022-07-17 00:00:00 Temperatura 55.8 del 16-07-2022 18:00, Mayor que la Máxima 6.0 17-07-2022 00:00 55.8 -- 6.0 2022-07-17 01:31:00
2 2022-08-02 00:00:00 Temperatura 6.6 del 01-08-2022 18:00, Mayor que la Máxima 6.5 02-08-2022 00:00 6.6 -- 6.5 2022-08-02 02:34:00
2 2022-08-07 00:00:00 Temperatura 5.4 del 06-08-2022 15:00, Mayor que la Máxima 5.2 07-08-2022 00:00 5.4 -- 5.2 2022-08-07 01:42:00
2 2022-08-09 00:00:00 Temperatura 4.7 del 08-08-2022 18:00, Mayor que la Máxima 4.5 09-08-2022 00:00 4.7 -- 4.5 2022-08-09 00:25:00
2 2022-08-12 00:00:00 Temperatura 85.3 del 11-08-2022 15:00, Mayor que la Máxima 6.0 12-08-2022 00:00 85.3 -- 6.0 2022-08-12 02:05:00
2 2022-08-13 00:00:00 Temperatura 5.3 del 12-08-2022 18:00, Mayor que la Máxima 5.1 13-08-2022 00:00 5.3 -- 5.1 2022-08-13 01:58:00
2 2022-08-22 00:00:00 Temperatura 7.2 del 21-08-2022 15:00, Mayor que la Máxima 6.5 22-08-2022 00:00 7.2 -- 6.5 2022-08-22 00:59:00
2 2022-08-26 00:00:00 Temperatura 3.4 del 25-08-2022 15:00, Mayor que la Máxima 3.2 26-08-2022 00:00 3.4 -- 3.2 2022-08-26 01:20:00
2 2022-08-29 00:00:00 Temperatura 3.2 del 28-08-2022 15:00, Mayor que la Máxima 3.0 29-08-2022 00:00 3.2 -- 3.0 2022-08-29 01:43:00
2 2022-09-02 00:00:00 Temperatura 4.7 del 01-09-2022 15:00, Mayor que la Máxima 4.3 02-09-2022 00:00 4.7 -- 4.3 2022-09-02 01:36:00
2 2022-09-22 00:00:00 Temperatura 7.4 del 21-09-2022 15:00, Mayor que la Máxima 7.3 22-09-2022 00:00 7.4 -- 7.3 2022-09-22 12:04:00
2 2022-09-28 00:00:00 Temperatura 6.3 del 27-09-2022 15:00, Mayor que la Máxima 6.0 28-09-2022 00:00 6.3 -- 6.0 2022-09-28 00:49:00
2 2022-10-12 00:00:00 Temperatura 9.0 del 11-10-2022 15:00, Mayor que la Máxima 5.2 12-10-2022 00:00 9.0 -- 5.2 2022-10-12 03:03:00
2 2022-11-07 00:00:00 Temperatura 10.3 del 06-11-2022 18:00, Mayor que la Máxima 9.0 07-11-2022 00:00 10.3 -- 9.0 2022-11-07 00:22:00
2 2022-11-23 00:00:00 Temperatura 9.2 del 22-11-2022 21:00, Mayor que la Máxima 8.0 23-11-2022 00:00 9.2 -- 8.0 2022-11-23 00:10:00
2 2022-12-08 00:00:00 Temperatura 5.4 del 07-12-2022 18:00, Mayor que la Máxima 4.2 08-12-2022 00:00 5.4 -- 4.2 2022-12-08 03:56:00
2 2022-12-24 00:00:00 Temperatura 8.6 del 23-12-2022 18:00, Mayor que la Máxima 8.0 24-12-2022 00:00 8.6 -- 8.0 2022-12-24 02:09:00
2 2022-12-25 00:00:00 Temperatura 8.6 del 24-12-2022 18:00, Mayor que la Máxima 8.0 25-12-2022 00:00 8.6 -- 8.0 2022-12-25 02:29:00
2 2022-12-29 00:00:00 Temperatura 7.5 del 28-12-2022 18:00, Mayor que la Máxima 7.0 29-12-2022 00:00 7.5 -- 7.0 2022-12-29 01:39:00
2 2023-01-30 00:00:00 Temperatura 9.2 del 29-01-2023 18:00, Mayor que la Máxima 7.9 30-01-2023 00:00 9.2 -- 7.9 2023-01-30 01:03:00
2 2023-05-04 00:00:00 Temperatura 6.8 del 03-05-2023 18:00, Mayor que la Máxima 6.4 04-05-2023 00:00 6.8 -- 6.4 2023-05-04 03:06:00
2 2023-06-08 00:00:00 Temperatura 7.3 del 07-06-2023 18:00, Mayor que la Máxima 4.6 08-06-2023 00:00 7.3 -- 4.6 2023-06-08 01:02:00
2 2023-06-10 00:00:00 Temperatura 11.6 del 09-06-2023 15:00, Mayor que la Máxima 2.4 10-06-2023 00:00 11.6 -- 2.4 2023-06-10 00:49:00
2 2023-07-06 00:00:00 Temperatura 9.0 del 05-07-2023 21:00, Mayor que la Máxima 4.2 06-07-2023 00:00 9.0 -- 4.2 2023-07-06 00:49:00
2 2023-08-02 00:00:00 Temperatura 3.4 del 01-08-2023 18:00, Mayor que la Máxima 3.2 02-08-2023 00:00 3.4 -- 3.2 2023-08-02 00:50:00
2 2023-08-15 00:00:00 Temperatura 3.2 del 14-08-2023 15:00, Mayor que la Máxima 3.0 15-08-2023 00:00 3.2 -- 3.0 2023-08-15 00:56:00
2 2023-09-07 00:00:00 Temperatura 5.6 del 06-09-2023 15:00, Mayor que la Máxima 5.5 07-09-2023 00:00 5.6 -- 5.5 2023-09-07 00:09:00
2 2023-09-23 00:00:00 Temperatura 4.8 del 22-09-2023 15:00, Mayor que la Máxima 4.0 23-09-2023 00:00 4.8 -- 4.0 2023-09-23 00:19:00
2 2023-09-27 00:00:00 Temperatura 3.2 del 26-09-2023 15:00, Mayor que la Máxima 3.0 27-09-2023 00:00 3.2 -- 3.0 2023-09-27 00:24:00
2 2023-10-05 00:00:00 Temperatura 5.6 del 04-10-2023 18:00, Mayor que la Máxima 5.2 05-10-2023 00:00 5.6 -- 5.2 2023-10-05 00:03:00
2 2023-10-13 00:00:00 Temperatura 5.4 del 12-10-2023 21:00, Mayor que la Máxima 5.2 13-10-2023 00:00 5.4 -- 5.2 2023-10-13 00:23:00
2 2023-10-15 00:00:00 Temperatura 5.8 del 14-10-2023 21:00, Mayor que la Máxima 5.6 15-10-2023 00:00 5.8 -- 5.6 2023-10-15 00:21:00
2 2023-10-23 00:00:00 Temperatura 6.8 del 22-10-2023 15:00, Mayor que la Máxima 6.6 23-10-2023 00:00 6.8 -- 6.6 2023-10-23 00:13:00
2 2023-10-31 00:00:00 Temperatura 4.2 del 30-10-2023 21:00, Mayor que la Máxima 4.0 31-10-2023 00:00 4.2 -- 4.0 2023-10-31 00:24:00
2 2023-11-04 00:00:00 Temperatura 5.8 del 03-11-2023 15:00, Mayor que la Máxima 5.6 04-11-2023 00:00 5.8 -- 5.6 2023-11-04 00:10:00
2 2023-11-06 00:00:00 Temperatura 6.2 del 05-11-2023 18:00, Mayor que la Máxima 5.0 06-11-2023 00:00 6.2 -- 5.0 2023-11-06 00:08:00
2 2023-11-12 00:00:00 Temperatura 5.8 del 11-11-2023 15:00, Mayor que la Máxima 5.6 12-11-2023 00:00 5.8 -- 5.6 2023-11-12 00:54:00
2 2023-11-16 00:00:00 Temperatura 3.6 del 15-11-2023 18:00, Mayor que la Máxima 3.4 16-11-2023 00:00 3.6 -- 3.4 2023-11-16 00:47:00
2 2023-11-18 00:00:00 Temperatura 6.8 del 17-11-2023 15:00, Mayor que la Máxima 4.0 18-11-2023 00:00 6.8 -- 4.0 2023-11-18 04:57:00
2 2023-11-25 00:00:00 Temperatura 7.2 del 24-11-2023 21:00, Mayor que la Máxima 7.0 25-11-2023 00:00 7.2 -- 7.0 2023-11-25 00:06:00
2 2023-11-26 00:00:00 Temperatura 7.0 del 25-11-2023 18:00, Mayor que la Máxima 6.0 26-11-2023 00:00 7.0 -- 6.0 2023-11-26 00:12:00
2 2023-11-29 00:00:00 Temperatura 10.2 del 28-11-2023 18:00, Mayor que la Máxima 6.0 29-11-2023 00:00 10.2 -- 6.0 2023-11-29 00:44:00
2 2023-12-03 00:00:00 Temperatura 7.4 del 02-12-2023 15:00, Mayor que la Máxima 5.0 03-12-2023 00:00 7.4 -- 5.0 2023-12-03 00:16:00
2 2023-12-04 00:00:00 Temperatura 6.8 del 03-12-2023 15:00, Mayor que la Máxima 6.0 04-12-2023 00:00 6.8 -- 6.0 2023-12-03 23:59:00
2 2023-12-12 00:00:00 Temperatura 9.2 del 11-12-2023 21:00, Mayor que la Máxima 9.0 12-12-2023 00:00 9.2 -- 9.0 2023-12-12 00:06:00
2 2023-12-16 00:00:00 Temperatura 11.4 del 15-12-2023 18:00, Mayor que la Máxima 11.0 16-12-2023 00:00 11.4 -- 11.0 2023-12-16 00:21:00
2 2023-12-24 00:00:00 Temperatura 7.0 del 23-12-2023 18:00, Mayor que la Máxima 6.8 24-12-2023 00:00 7.0 -- 6.8 2023-12-24 00:16:00
2 2023-12-25 00:00:00 Temperatura 7.0 del 24-12-2023 15:00, Mayor que la Máxima 6.5 25-12-2023 00:00 7.0 -- 6.5 2023-12-25 00:48:00
2 2024-01-02 00:00:00 Temperatura 8.6 del 01-01-2024 15:00, Mayor que la Máxima 8.2 02-01-2024 00:00 8.6 -- 8.2 2024-01-02 00:22:00
2 2024-01-02 00:00:00 Temperatura 8.6 del 01-01-2024 15:00, Mayor que la Máxima 8.2 02-01-2024 00:00 8.6 -- 8.2 2024-01-02 00:22:00
2 2024-01-06 00:00:00 Temperatura 7.4 del 05-01-2024 21:00, Mayor que la Máxima 7.1 06-01-2024 00:00 7.4 -- 7.1 2024-01-06 00:36:00
2 2024-01-18 00:00:00 Temperatura 8.8 del 17-01-2024 18:00, Mayor que la Máxima 7.8 18-01-2024 00:00 8.8 -- 7.8 2024-01-18 00:08:00
2 2021-11-30 12:00:00 Temperatura 5.4 del 30-11-2021 03:00, Menor que la Mínima 6.3 30-11-2021 12:00 5.4 -- 6.3 2021-11-30 13:42:00
2 2021-12-26 12:00:00 Temperatura 7.0 del 26-12-2021 06:00, Menor que la Mínima 7.1 26-12-2021 12:00 7.0 -- 7.1 2021-12-26 12:50:00
2 2022-01-05 12:00:00 Temperatura 4.1 del 05-01-2022 03:00, Menor que la Mínima 4.2 05-01-2022 12:00 4.1 -- 4.2 2022-01-05 12:00:00
2 2022-01-21 12:00:00 Temperatura 6.0 del 21-01-2022 06:00, Menor que la Mínima 6.1 21-01-2022 12:00 6.0 -- 6.1 2022-01-21 12:01:00
2 2022-01-25 12:00:00 Temperatura 4.5 del 25-01-2022 09:00, Menor que la Mínima 5.0 25-01-2022 12:00 4.5 -- 5.0 2022-01-25 12:30:00
2 2022-03-29 12:00:00 Temperatura 4.7 del 29-03-2022 09:00, Menor que la Mínima 5.0 29-03-2022 12:00 4.7 -- 5.0 2022-03-29 12:46:00
2 2022-05-06 12:00:00 Temperatura 3.0 del 06-05-2022 03:00, Menor que la Mínima 4.0 06-05-2022 12:00 3.0 -- 4.0 2022-05-06 12:33:00
2 2022-07-30 12:00:00 Temperatura 1.0 del 30-07-2022 03:00, Menor que la Mínima 2.0 30-07-2022 12:00 1.0 -- 2.0 2022-07-30 12:44:00
2 2022-08-22 12:00:00 Temperatura 3.4 del 22-08-2022 06:00, Menor que la Mínima 3.5 22-08-2022 12:00 3.4 -- 3.5 2022-08-22 12:43:00
2 2022-09-07 12:00:00 Temperatura -0.3 del 07-09-2022 03:00, Menor que la Mínima 1.1 07-09-2022 12:00 -0.3 -- 1.1 2022-09-07 12:16:00
2 2022-09-19 12:00:00 Temperatura 4.0 del 19-09-2022 03:00, Menor que la Mínima 4.2 19-09-2022 12:00 4.0 -- 4.2 2022-09-19 12:12:00
2 2022-10-26 12:00:00 Temperatura 4.5 del 26-10-2022 09:00, Menor que la Mínima 4.8 26-10-2022 12:00 4.5 -- 4.8 2022-10-26 12:08:00
2 2022-11-26 12:00:00 Temperatura 3.6 del 26-11-2022 06:00, Menor que la Mínima 4.5 26-11-2022 12:00 3.6 -- 4.5 2022-11-26 12:07:00
2 2022-12-12 12:00:00 Temperatura 4.3 del 12-12-2022 09:00, Menor que la Mínima 5.0 12-12-2022 12:00 4.3 -- 5.0 2022-12-12 14:08:00
2 2023-03-29 12:00:00 Temperatura 1.0 del 29-03-2023 03:00, Menor que la Mínima 1.3 29-03-2023 12:00 1.0 -- 1.3 2023-03-29 11:47:00
2 2023-08-06 12:00:00 Temperatura -0.4 del 06-08-2023 03:00, Menor que la Mínima 0.4 06-08-2023 12:00 -0.4 -- 0.4 2023-08-06 12:23:00
2 2023-08-15 12:00:00 Temperatura -2.2 del 15-08-2023 06:00, Menor que la Mínima -2.0 15-08-2023 12:00 -2.2 -- -2.0 2023-08-15 12:00:00
2 2023-09-09 12:00:00 Temperatura 2.0 del 09-09-2023 06:00, Menor que la Mínima 4.0 09-09-2023 12:00 2.0 -- 4.0 2023-09-09 12:04:00
2 2023-09-11 12:00:00 Temperatura 3.2 del 11-09-2023 03:00, Menor que la Mínima 4.0 11-09-2023 12:00 3.2 -- 4.0 2023-09-11 23:13:00
2 2023-09-27 12:00:00 Temperatura -0.6 del 27-09-2023 03:00, Menor que la Mínima 2.0 27-09-2023 12:00 -0.6 -- 2.0 2023-09-27 11:54:00
2 2023-10-03 12:00:00 Temperatura 3.6 del 03-10-2023 03:00, Menor que la Mínima 4.0 03-10-2023 12:00 3.6 -- 4.0 2023-10-03 12:28:00
2 2023-10-09 12:00:00 Temperatura 1.4 del 09-10-2023 03:00, Menor que la Mínima 1.6 09-10-2023 12:00 1.4 -- 1.6 2023-10-09 13:12:00
2 2023-10-15 12:00:00 Temperatura 4.0 del 15-10-2023 03:00, Menor que la Mínima 4.2 15-10-2023 12:00 4.0 -- 4.2 2023-10-15 11:59:00
2 2023-10-25 12:00:00 Temperatura 3.6 del 25-10-2023 09:00, Menor que la Mínima 4.0 25-10-2023 12:00 3.6 -- 4.0 2023-10-25 13:18:00
2 2023-10-27 12:00:00 Temperatura 1.8 del 27-10-2023 03:00, Menor que la Mínima 2.0 27-10-2023 12:00 1.8 -- 2.0 2023-10-27 11:58:00
2 2023-11-02 12:00:00 Temperatura 4.0 del 02-11-2023 06:00, Menor que la Mínima 5.0 02-11-2023 12:00 4.0 -- 5.0 2023-11-02 13:16:00
2 2023-11-06 12:00:00 Temperatura 4.0 del 06-11-2023 06:00, Menor que la Mínima 5.0 06-11-2023 12:00 4.0 -- 5.0 2023-11-06 13:02:00
2 2023-11-14 12:00:00 Temperatura 1.8 del 14-11-2023 09:00, Menor que la Mínima 3.5 14-11-2023 12:00 1.8 -- 3.5 2023-11-14 12:19:00
2 2023-11-16 12:00:00 Temperatura 2.4 del 16-11-2023 03:00, Menor que la Mínima 2.6 16-11-2023 12:00 2.4 -- 2.6 2023-11-16 12:07:00
2 2023-11-18 12:00:00 Temperatura 1.0 del 18-11-2023 03:00, Menor que la Mínima 2.0 18-11-2023 12:00 1.0 -- 2.0 2023-11-18 11:50:00
2 2023-11-26 12:00:00 Temperatura 2.0 del 26-11-2023 09:00, Menor que la Mínima 4.0 26-11-2023 12:00 2.0 -- 4.0 2023-11-26 12:02:00
2 2023-11-29 12:00:00 Temperatura 4.7 del 29-11-2023 09:00, Menor que la Mínima 5.0 29-11-2023 12:00 4.7 -- 5.0 2023-11-29 11:59:00
2 2023-11-30 12:00:00 Temperatura 3.4 del 30-11-2023 09:00, Menor que la Mínima 4.0 30-11-2023 12:00 3.4 -- 4.0 2023-11-30 11:44:00
2 2023-12-02 12:00:00 Temperatura 3.2 del 02-12-2023 03:00, Menor que la Mínima 3.5 02-12-2023 12:00 3.2 -- 3.5 2023-12-02 15:27:00
2 2023-12-03 12:00:00 Temperatura 4.0 del 03-12-2023 03:00, Menor que la Mínima 5.0 03-12-2023 12:00 4.0 -- 5.0 2023-12-03 12:07:00
2 2023-12-04 12:00:00 Temperatura 5.0 del 04-12-2023 03:00, Menor que la Mínima 5.5 04-12-2023 12:00 5.0 -- 5.5 2023-12-04 12:19:00
Errores del Nivel 98
Informe generado el 05-03-2024 09:30
Requerimiento: RE6001